Weather History for O'Neill, NE

Change the Weather History Date:

Sunday, January 6, 2013

  Actual Average Record
Temperature  
Mean Temperature 29 °F -  
Max Temperature 43 °F 27 °F 58 °F (1965)
Min Temperature 15 °F 6 °F -18 °F (1988)
Degree Days  
Heating Degree Days 36    
Moisture  
Dew Point 21 °F    
Average Humidity 71    
Maximum Humidity 90    
Minimum Humidity 48    
Precipitation  
Precipitation 0.00 in - - ()
Sea Level Pressure  
Sea Level Pressure 30.11 in    
Wind  
Wind Speed 8 mph (SW)    
Max Wind Speed 21 mph    
Max Gust Speed 25 mph    
Visibility 10 miles    
Events      
Averages and records for this station are not official NWS values.
T = Trace of Precipitation, MM = Missing Value Source: NWS Daily Summary

Daily Weather History Graph

Daily Weather History Graph

Search for Another Location

Airport:

Trip Planner

Search our weather history database for the weather conditions in past years. The results will help you decide how hot, cold, wet, or windy it might be!

Date:

Astronomy

Jan. 06, 2013 Rise Set
Actual Time 8:04 AM CST 5:17 PM CST
Civil Twilight 7:32 AM CST 5:49 PM CST
Nautical Twilight 6:57 AM CST 6:24 PM CST
Astronomical Twilight 6:23 AM CST 6:58 PM CST
Moon 2:17 AM CST (1/6) 12:48 PM CST (1/6)
Length of Visible Light 10h 16m
Length of Day
9h 13m
Waning Crescent, 33% of the Moon is Illuminated
Jan 6
Waning Crescent
Jan 11
New
Jan 18
First Quarter
Jan 26
Full
Feb 3
Last Quarter

Hourly Weather History & Observations

Time (CST) Temp. Windchill Dew Point Humidity Pressure Visibility Wind Dir Wind Speed Gust Speed Precip Events Conditions
12:15 AM 16.7 °F 11.2 °F 14.2 °F 90% 30.20 in 10.0 mi West 3.5 mph - N/A   Clear
12:35 AM 16.5 °F 11.0 °F 14.0 °F 90% 30.19 in 10.0 mi West 3.5 mph - N/A   Clear
12:55 AM 16.3 °F 9.2 °F 13.8 °F 90% 30.19 in 10.0 mi WSW 4.6 mph - N/A   Clear
1:15 AM 15.8 °F 5.1 °F 12.9 °F 88% 30.19 in 10.0 mi West 8.1 mph - N/A   Clear
1:35 AM 15.6 °F 7.0 °F 12.6 °F 88% 30.19 in 10.0 mi WSW 5.8 mph - N/A   Clear
1:55 AM 15.1 °F 5.2 °F 12.0 °F 88% 30.20 in 10.0 mi West 6.9 mph - N/A   Clear
2:15 AM 16.9 °F 5.5 °F 12.9 °F 84% 30.19 in 10.0 mi West 9.2 mph - N/A   Clear
2:35 AM 17.4 °F 8.0 °F 12.9 °F 83% 30.20 in 10.0 mi West 6.9 mph - N/A   Clear
2:55 AM 17.2 °F 6.8 °F 12.6 °F 82% 30.21 in 10.0 mi West 8.1 mph - N/A   Clear
3:15 AM 16.0 °F 6.3 °F 11.7 °F 83% 30.20 in 10.0 mi West 6.9 mph - N/A   Clear
3:35 AM 16.7 °F 7.2 °F 12.7 °F 84% 30.19 in 10.0 mi West 6.9 mph - N/A   Clear
3:55 AM 17.6 °F 8.2 °F 13.5 °F 84% 30.19 in 10.0 mi WSW 6.9 mph - N/A   Clear
4:15 AM 15.6 °F 8.3 °F 11.7 °F 84% 30.19 in 10.0 mi West 4.6 mph - N/A   Clear
4:35 AM 17.2 °F 8.9 °F 13.1 °F 84% 30.19 in 10.0 mi WSW 5.8 mph - N/A   Clear
4:55 AM 16.5 °F 8.1 °F 12.9 °F 86% 30.19 in 10.0 mi West 5.8 mph - N/A   Clear
5:15 AM 17.6 °F 8.2 °F 13.8 °F 85% 30.19 in 10.0 mi West 6.9 mph - N/A   Clear
5:35 AM 18.5 °F 8.4 °F 14.7 °F 85% 30.19 in 10.0 mi West 8.1 mph - N/A   Clear
5:55 AM 20.3 °F 9.8 °F 15.6 °F 82% 30.19 in 10.0 mi West 9.2 mph - N/A   Clear
6:15 AM 20.1 °F 8.8 °F 15.6 °F 83% 30.19 in 10.0 mi West 10.4 mph - N/A   Clear
6:35 AM 20.3 °F 9.0 °F 15.6 °F 82% 30.20 in 10.0 mi West 10.4 mph - N/A   Clear
6:55 AM 19.9 °F 9.3 °F 15.3 °F 82% 30.21 in 10.0 mi West 9.2 mph - N/A   Clear
7:15 AM 20.7 °F 11.0 °F 15.6 °F 81% 30.21 in 10.0 mi WNW 8.1 mph - N/A   Clear
7:35 AM 19.6 °F 9.7 °F 14.7 °F 81% 30.21 in 10.0 mi West 8.1 mph - N/A   Clear
7:55 AM 19.2 °F 9.3 °F 14.5 °F 82% 30.21 in 10.0 mi West 8.1 mph - N/A   Clear
8:15 AM 18.5 °F 11.7 °F 14.0 °F 83% 30.21 in 10.0 mi West 4.6 mph - N/A   Clear
8:35 AM 19.6 °F 13.0 °F 14.9 °F 82% 30.22 in 10.0 mi West 4.6 mph - N/A   Clear
8:55 AM 21.7 °F 15.5 °F 16.3 °F 80% 30.21 in 10.0 mi West 4.6 mph - N/A   Clear
9:15 AM 23.4 °F 18.9 °F 17.1 °F 77% 30.22 in 10.0 mi SSW 3.5 mph - N/A   Clear
9:35 AM 24.6 °F 18.8 °F 18.1 °F 76% 30.22 in 10.0 mi West 4.6 mph - N/A   Clear
9:55 AM 27.0 °F 21.6 °F 19.6 °F 74% 30.21 in 10.0 mi WSW 4.6 mph - N/A   Clear
10:15 AM 28.8 °F 22.6 °F 20.7 °F 72% 30.21 in 10.0 mi WSW 5.8 mph - N/A   Clear
10:35 AM 31.5 °F 25.8 °F 22.5 °F 69% 30.22 in 10.0 mi SW 5.8 mph - N/A   Clear
10:55 AM 33.1 °F 30.0 °F 23.7 °F 68% 30.21 in 10.0 mi SSW 3.5 mph - N/A   Clear
11:15 AM 34.5 °F 29.4 °F 24.6 °F 67% 30.21 in 10.0 mi SW 5.8 mph - N/A   Clear
11:35 AM 36.3 °F 33.7 °F 25.7 °F 65% 30.19 in 10.0 mi South 3.5 mph - N/A   Clear
11:55 AM 37.4 °F 33.8 °F 26.2 °F 64% 30.19 in 10.0 mi SSW 4.6 mph - N/A   Clear
12:15 PM 38.5 °F 32.7 °F 26.4 °F 62% 30.18 in 10.0 mi SSW 8.1 mph - N/A   Clear
12:35 PM 39.7 °F 34.3 °F 26.2 °F 59% 30.17 in 10.0 mi South 8.1 mph - N/A   Clear
12:55 PM 40.5 °F 34.1 °F 26.4 °F 57% 30.15 in 10.0 mi SSW 10.4 mph - N/A   Clear
1:15 PM 41.2 °F 35.0 °F 26.2 °F 55% 30.14 in 10.0 mi SSW 10.4 mph - N/A   Clear
1:35 PM 41.5 °F 35.0 °F 25.9 °F 54% 30.13 in 10.0 mi SSW 11.5 mph - N/A   Clear
1:55 PM 41.9 °F 34.6 °F 26.2 °F 54% 30.12 in 10.0 mi SSW 13.8 mph - N/A   Clear
2:15 PM 42.3 °F 35.5 °F 26.2 °F 53% 30.11 in 10.0 mi South 12.7 mph - N/A   Clear
2:35 PM 43.0 °F 36.0 °F 26.1 °F 51% 30.10 in 10.0 mi SSW 13.8 mph 20.7 mph N/A   Clear
2:55 PM 43.2 °F 36.2 °F 25.2 °F 49% 30.09 in 10.0 mi South 13.8 mph - N/A   Clear
3:15 PM 43.5 °F 36.4 °F 25.5 °F 49% 30.08 in 10.0 mi South 15.0 mph 19.6 mph N/A   Clear
3:35 PM 43.7 °F 37.3 °F 25.2 °F 48% 30.07 in 10.0 mi South 12.7 mph 20.7 mph N/A   Clear
3:55 PM 43.2 °F 35.9 °F 25.5 °F 50% 30.07 in 10.0 mi South 15.0 mph - N/A   Clear
4:15 PM 42.8 °F 35.4 °F 25.9 °F 51% 30.05 in 10.0 mi South 15.0 mph 19.6 mph N/A   Clear
4:35 PM 41.4 °F 34.3 °F 26.1 °F 55% 30.04 in 10.0 mi South 12.7 mph - N/A   Clear
4:55 PM 40.5 °F 33.2 °F 26.1 °F 57% 30.04 in 10.0 mi South 12.7 mph 18.4 mph N/A   Clear
5:15 PM 38.5 °F 30.7 °F 26.4 °F 62% 30.03 in 10.0 mi South 12.7 mph - N/A   Clear
5:35 PM 37.6 °F 29.6 °F 25.9 °F 63% 30.01 in 10.0 mi South 12.7 mph - N/A   Clear
5:55 PM 36.7 °F 29.4 °F 25.7 °F 64% 30.00 in 10.0 mi South 10.4 mph 17.3 mph N/A   Clear
6:15 PM 36.1 °F 28.2 °F 25.5 °F 65% 30.00 in 10.0 mi South 11.5 mph - N/A   Clear
6:35 PM 35.6 °F 27.5 °F 25.2 °F 66% 29.99 in 10.0 mi South 11.5 mph - N/A   Clear
6:55 PM 35.6 °F 27.5 °F 24.6 °F 64% 29.99 in 10.0 mi South 11.5 mph - N/A   Clear
7:15 PM 35.2 °F 27.1 °F 24.3 °F 64% 29.97 in 10.0 mi South 11.5 mph - N/A   Clear
7:35 PM 35.1 °F 24.8 °F 24.3 °F 65% 29.97 in 10.0 mi South 17.3 mph 20.7 mph N/A   Clear
7:55 PM 34.3 °F 23.5 °F 24.6 °F 68% 29.96 in 10.0 mi SSW 18.4 mph - N/A   Clear
8:15 PM 34.3 °F 24.2 °F 24.8 °F 68% 29.95 in 10.0 mi SSW 16.1 mph 20.7 mph N/A   Clear
8:35 PM 34.3 °F 25.0 °F 24.4 °F 67% 29.96 in 10.0 mi SSW 13.8 mph - N/A   Clear
9:15 PM 33.8 °F 23.5 °F 24.8 °F 70% 29.95 in 10.0 mi SSW 16.1 mph - N/A   Clear
9:35 PM 33.8 °F 23.5 °F 23.9 °F 67% 29.95 in 10.0 mi SSW 16.1 mph 21.9 mph N/A   Clear
9:55 PM 33.1 °F 21.9 °F 23.9 °F 69% 29.93 in 10.0 mi SSW 18.4 mph 23.0 mph N/A   Clear
10:15 PM 32.9 °F 21.6 °F 24.1 °F 70% 29.93 in 10.0 mi SSW 18.4 mph - N/A   Clear
10:35 PM 32.5 °F 20.5 °F 24.3 °F 72% 29.92 in 10.0 mi SSW 20.7 mph 25.3 mph N/A   Clear
10:55 PM 32.0 °F 20.1 °F 24.3 °F 73% 29.92 in 10.0 mi SSW 19.6 mph 24.2 mph N/A   Clear
11:15 PM 32.0 °F 20.5 °F 24.8 °F 75% 29.91 in 10.0 mi SSW 18.4 mph 23.0 mph N/A   Clear
11:35 PM 32.0 °F 20.8 °F 24.6 °F 74% 29.90 in 10.0 mi SSW 17.3 mph 24.2 mph N/A   Clear
11:55 PM 31.6 °F 20.0 °F 24.6 °F 75% 29.90 in 10.0 mi SSW 18.4 mph 23.0 mph N/A   Clear